| time (UTC) | temp C | wind direction | speed KPH | gust KPH | rain 1hr cm | rain 24hr cm | rain mn cm | humidity % | barometer mb |
| 20260502151540 | 12 | 270 | 4.8 | 9.7 | 0.00 | 0.00 | 0.00 | 38 | 849.1 |
| 20260502123034 | 3 | 270 | 0.0 | 1.6 | 0.00 | 0.00 | 0.00 | 29 | 849.6 |
| 20260502121534 | 3 | 270 | 0.0 | 1.6 | 0.00 | 0.00 | 0.00 | 28 | 849.6 |
| 20260502114533 | 3 | 270 | 0.0 | 1.6 | 0.00 | 0.00 | 0.00 | 28 | 849.5 |
| 20260502113032 | 3 | 270 | 0.0 | 0.0 | 0.00 | 0.00 | 0.00 | 29 | 849.6 |
| 20260502111532 | 3 | 270 | 0.0 | 3.2 | 0.00 | 0.00 | 0.00 | 29 | 849.5 |
| 20260502110033 | 3 | 270 | 0.0 | 1.6 | 0.00 | 0.00 | 0.00 | 28 | 849.4 |
| 20260502104533 | 3 | 270 | 3.2 | 8.0 | 0.00 | 0.00 | 0.00 | 28 | 849.3 |
| 20260502103030 | 4 | 270 | 0.0 | 3.2 | 0.00 | 0.00 | 0.00 | 28 | 849.4 |
| 20260502070025 | 8 | 270 | 4.8 | 6.4 | 0.00 | 0.00 | 0.00 | 27 | 849.6 |
| 20260502064525 | 8 | 270 | 8.0 | 9.7 | 0.00 | 0.00 | 0.00 | 27 | 849.4 |
| 20260502063021 | 9 | 270 | 1.6 | 8.0 | 0.00 | 0.00 | 0.00 | 27 | 849.6 |
| 20260502061525 | 9 | 270 | 8.0 | 11.3 | 0.00 | 0.00 | 0.00 | 27 | 849.7 |
| 20260502060020 | 10 | 270 | 1.6 | 4.8 | 0.00 | 0.00 | 0.00 | 26 | 849.7 |
| 20260502054520 | 10 | 270 | 0.0 | 4.8 | 0.00 | 0.00 | 0.00 | 26 | 849.6 |
| 20260502053019 | 11 | 270 | 0.0 | 1.6 | 0.00 | 0.00 | 0.00 | 26 | 849.6 |
| 20260502051519 | 12 | 270 | 1.6 | 3.2 | 0.00 | 0.00 | 0.00 | 25 | 849.6 |
| 20260502050018 | 13 | 270 | 0.0 | 3.2 | 0.00 | 0.00 | 0.00 | 25 | 849.7 |
| 20260502044518 | 14 | 270 | 0.0 | 1.6 | 0.00 | 0.00 | 0.00 | 25 | 849.7 |
| 20260502043017 | 15 | 270 | 0.0 | 0.0 | 0.00 | 0.00 | 0.00 | 24 | 849.6 |
| 20260502041517 | 16 | 270 | 0.0 | 0.0 | 0.00 | 0.00 | 0.00 | 25 | 849.5 |
| 20260502033015 | 21 | 270 | 0.0 | 1.6 | 0.00 | 0.00 | 0.00 | 23 | 849.2 |
| 20260502031515 | 22 | 270 | 1.6 | 3.2 | 0.00 | 0.00 | 0.00 | 23 | 849.0 |
| 20260502030014 | 24 | 270 | 1.6 | 1.6 | 0.00 | 0.00 | 0.00 | 23 | 848.8 |
| 20260502024518 | 26 | 270 | 0.0 | 3.2 | 0.00 | 0.00 | 0.00 | 24 | 848.5 |
| 20260502023014 | 28 | 270 | 0.0 | 0.0 | 0.00 | 0.00 | 0.00 | 23 | 848.3 |
| 20260502021513 | 30 | 270 | 0.0 | 0.0 | 0.00 | 0.00 | 0.00 | 24 | 848.1 |
| 20260502020012 | 31 | 270 | 0.0 | 0.0 | 0.00 | 0.00 | 0.00 | 24 | 848.1 |
| 20260502014511 | 32 | 270 | 3.2 | 3.2 | 0.00 | 0.00 | 0.00 | 25 | 847.9 |
| 20260502013011 | 33 | 270 | 0.0 | 0.0 | 0.00 | 0.00 | 0.00 | 24 | 848.0 |
| 20260502011510 | 33 | 270 | 0.0 | 4.8 | 0.00 | 0.00 | 0.00 | 24 | 847.9 |
| 20260502010010 | 35 | 270 | 0.0 | 4.8 | 0.00 | 0.00 | 0.00 | 24 | 848.0 |
| 20260502004509 | 35 | 270 | 4.8 | 8.0 | 0.00 | 0.00 | 0.00 | 24 | 848.0 |
| 20260502003009 | 36 | 270 | 8.0 | 8.0 | 0.00 | 0.00 | 0.00 | 24 | 848.0 |
| 20260502001508 | 36 | 270 | 0.0 | 6.4 | 0.00 | 0.00 | 0.00 | 24 | 848.0 |
| 20260502000008 | 36 | 270 | 3.2 | 4.8 | 0.00 | 0.00 | 0.00 | 24 | 848.0 |
| 20260501234510 | 36 | 270 | 9.7 | 9.7 | 0.00 | 0.00 | 0.00 | 24 | 848.1 |
| 20260501231506 | 37 | 270 | 0.0 | 4.8 | 0.00 | 0.00 | 0.00 | 24 | 848.1 |
| 20260501230006 | 37 | 270 | 3.2 | 4.8 | 0.00 | 0.00 | 0.00 | 24 | 848.1 |
| 20260501224505 | 37 | 270 | 9.7 | 9.7 | 0.00 | 0.00 | 0.00 | 25 | 848.2 |
| 20260501223006 | 36 | 270 | 1.6 | 4.8 | 0.00 | 0.00 | 0.00 | 25 | 848.3 |
| 20260501221504 | 36 | 270 | 4.8 | 8.0 | 0.00 | 0.00 | 0.00 | 26 | 848.4 |
| 20260501220004 | 36 | 270 | 3.2 | 6.4 | 0.00 | 0.00 | 0.00 | 26 | 848.6 |
| 20260501214503 | 36 | 270 | 6.4 | 11.3 | 0.00 | 0.00 | 0.00 | 27 | 848.6 |
| 20260501213003 | 35 | 270 | 6.4 | 9.7 | 0.00 | 0.00 | 0.00 | 27 | 848.7 |
| 20260501211502 | 35 | 270 | 0.0 | 9.7 | 0.00 | 0.00 | 0.00 | 27 | 848.9 |
| 20260501210002 | 34 | 270 | 1.6 | 11.3 | 0.00 | 0.00 | 0.00 | 28 | 849.0 |
| 20260501204503 | 33 | 270 | 1.6 | 6.4 | 0.00 | 0.00 | 0.00 | 28 | 849.1 |
| 20260501203000 | 32 | 270 | 4.8 | 6.4 | 0.00 | 0.00 | 0.00 | 29 | 849.1 |
| 20260501201500 | 32 | 270 | 6.4 | 6.4 | 0.00 | 0.00 | 0.00 | 29 | 849.1 |
| 20260501200000 | 31 | 270 | 1.6 | 6.4 | 0.00 | 0.00 | 0.00 | 29 | 849.3 |
| 20260501194502 | 30 | 270 | 1.6 | 6.4 | 0.00 | 0.00 | 0.00 | 31 | 849.3 |
| 20260501192958 | 30 | 270 | 0.0 | 4.8 | 0.00 | 0.00 | 0.00 | 31 | 849.4 |
| 20260501191458 | 28 | 270 | 4.8 | 9.7 | 0.00 | 0.00 | 0.00 | 32 | 849.5 |
| 20260501185958 | 28 | 270 | 3.2 | 8.0 | 0.00 | 0.00 | 0.00 | 33 | 849.5 |
| 20260501184502 | 27 | 270 | 6.4 | 9.7 | 0.00 | 0.00 | 0.00 | 34 | 849.5 |
| 20260501182956 | 26 | 270 | 1.6 | 4.8 | 0.00 | 0.00 | 0.00 | 35 | 849.7 |
| 20260501181456 | 25 | 270 | 0.0 | 9.7 | 0.00 | 0.00 | 0.00 | 35 | 849.8 |
| 20260501175955 | 23 | 270 | 0.0 | 8.0 | 0.00 | 0.00 | 0.00 | 36 | 849.9 |
| 20260501174500 | 22 | 270 | 1.6 | 9.7 | 0.00 | 0.00 | 0.00 | 38 | 850.1 |
| 20260501172955 | 21 | 270 | 6.4 | 12.9 | 0.00 | 0.00 | 0.00 | 41 | 850.3 |
| 20260501171454 | 20 | 270 | 1.6 | 4.8 | 0.00 | 0.00 | 0.00 | 42 | 850.2 |
| 20260501165953 | 18 | 270 | 0.0 | 1.6 | 0.00 | 0.00 | 0.00 | 43 | 850.4 |
| 20260501164455 | 16 | 270 | 8.0 | 11.3 | 0.00 | 0.00 | 0.00 | 44 | 850.5 |
| 20260501162952 | 15 | 270 | 1.6 | 4.8 | 0.00 | 0.00 | 0.00 | 44 | 850.4 |
| 20260501161452 | 13 | 270 | 0.0 | 6.4 | 0.00 | 0.00 | 0.00 | 44 | 850.5 |